Year,Month,Day,Hour,Minute,Value (Times are PST for temperature in C)
2015,08,09,00,00,13.80
2015,08,09,00,01,13.80
2015,08,09,00,02,13.80
2015,08,09,00,03,13.70
2015,08,09,00,04,13.70
2015,08,09,00,05,13.70
2015,08,09,00,06,13.70
2015,08,09,00,07,13.70
2015,08,09,00,08,13.70
2015,08,09,00,09,13.70
2015,08,09,00,10,13.60
2015,08,09,00,11,13.60
2015,08,09,00,12,13.60
2015,08,09,00,13,13.60
2015,08,09,00,14,13.60
2015,08,09,00,15,13.60
2015,08,09,00,16,13.50
2015,08,09,00,17,13.50
2015,08,09,00,18,13.50
2015,08,09,00,19,13.50
2015,08,09,00,20,13.50
2015,08,09,00,21,13.50
2015,08,09,00,22,13.50
2015,08,09,00,23,13.50
2015,08,09,00,24,13.50
2015,08,09,00,25,13.50
2015,08,09,00,26,13.50
2015,08,09,00,27,13.50
2015,08,09,00,28,13.50
2015,08,09,00,29,13.50
2015,08,09,00,30,13.50
2015,08,09,00,31,13.50
2015,08,09,00,32,13.50
2015,08,09,00,33,13.50
2015,08,09,00,34,13.40
2015,08,09,00,35,13.40
2015,08,09,00,36,13.50
2015,08,09,00,37,13.50
2015,08,09,00,38,13.50
2015,08,09,00,39,13.40
2015,08,09,00,40,13.40
2015,08,09,00,41,13.40
2015,08,09,00,42,13.50
2015,08,09,00,43,13.50
2015,08,09,00,44,13.50
2015,08,09,00,45,13.50
2015,08,09,00,46,13.50
2015,08,09,00,47,13.50
2015,08,09,00,48,13.50
2015,08,09,00,49,13.50
2015,08,09,00,50,13.50
2015,08,09,00,51,13.50
2015,08,09,00,52,13.50
2015,08,09,00,53,13.60
2015,08,09,00,54,13.60
2015,08,09,00,55,13.60
2015,08,09,00,56,13.60
2015,08,09,00,57,13.70
2015,08,09,00,58,13.70
2015,08,09,00,59,13.70
2015,08,09,01,00,13.80
2015,08,09,01,01,13.90
2015,08,09,01,02,14.00
2015,08,09,01,03,14.00
2015,08,09,01,04,14.00
2015,08,09,01,05,14.10
2015,08,09,01,06,14.10
2015,08,09,01,07,14.10
2015,08,09,01,08,14.10
2015,08,09,01,09,14.10
2015,08,09,01,10,14.20
2015,08,09,01,11,14.20
2015,08,09,01,12,14.20
2015,08,09,01,13,14.30
2015,08,09,01,14,14.30
2015,08,09,01,15,14.40
2015,08,09,01,16,14.40
2015,08,09,01,17,14.50
2015,08,09,01,18,14.50
2015,08,09,01,19,14.60
2015,08,09,01,20,14.70
2015,08,09,01,21,14.80
2015,08,09,01,22,14.80
2015,08,09,01,23,14.90
2015,08,09,01,24,14.90
2015,08,09,01,25,14.90
2015,08,09,01,26,14.90
2015,08,09,01,27,14.90
2015,08,09,01,28,14.90
2015,08,09,01,29,14.90
2015,08,09,01,30,14.80
2015,08,09,01,31,14.80
2015,08,09,01,32,14.90
2015,08,09,01,33,14.90
2015,08,09,01,34,14.90
2015,08,09,01,35,14.90
2015,08,09,01,36,14.80
2015,08,09,01,37,14.80
2015,08,09,01,38,14.80
2015,08,09,01,39,14.80
2015,08,09,01,40,14.90
2015,08,09,01,41,15.00
2015,08,09,01,42,15.00
2015,08,09,01,43,15.00
2015,08,09,01,44,15.00
2015,08,09,01,45,15.10
2015,08,09,01,46,15.20
2015,08,09,01,47,15.20
2015,08,09,01,48,15.20
2015,08,09,01,49,15.20
2015,08,09,01,50,15.20
2015,08,09,01,51,15.20
2015,08,09,01,52,15.20
2015,08,09,01,53,15.20
2015,08,09,01,54,15.10
2015,08,09,01,55,15.10
2015,08,09,01,56,15.10
2015,08,09,01,57,15.10
2015,08,09,01,58,15.10
2015,08,09,01,59,15.10
2015,08,09,02,00,15.10
2015,08,09,02,01,15.20
2015,08,09,02,02,15.20
2015,08,09,02,03,15.20
2015,08,09,02,04,15.30
2015,08,09,02,05,15.30
2015,08,09,02,06,15.30
2015,08,09,02,07,15.30
2015,08,09,02,08,15.30
2015,08,09,02,09,15.40
2015,08,09,02,10,15.40
2015,08,09,02,11,15.50
2015,08,09,02,12,15.50
2015,08,09,02,13,15.60
2015,08,09,02,14,15.60
2015,08,09,02,15,15.70
2015,08,09,02,16,15.70
2015,08,09,02,17,15.80
2015,08,09,02,18,15.80
2015,08,09,02,19,15.80
2015,08,09,02,20,15.90
2015,08,09,02,21,16.10
2015,08,09,02,22,16.10
2015,08,09,02,23,16.20
2015,08,09,02,24,16.30
2015,08,09,02,25,16.30
2015,08,09,02,26,16.40
2015,08,09,02,27,16.50
2015,08,09,02,28,16.60
2015,08,09,02,29,16.60
2015,08,09,02,30,16.70
2015,08,09,02,31,16.70
2015,08,09,02,32,16.70
2015,08,09,02,33,16.70
2015,08,09,02,34,16.70
2015,08,09,02,35,16.70
2015,08,09,02,36,16.70
2015,08,09,02,37,16.70
2015,08,09,02,38,16.70
2015,08,09,02,39,16.70
2015,08,09,02,40,16.80
2015,08,09,02,41,16.80
2015,08,09,02,42,16.90
2015,08,09,02,43,16.90
2015,08,09,02,44,16.90
2015,08,09,02,45,16.90
2015,08,09,02,46,16.90
2015,08,09,02,47,16.90
2015,08,09,02,48,17.00
2015,08,09,02,49,17.00
2015,08,09,02,50,17.00
2015,08,09,02,51,17.00
2015,08,09,02,52,17.10
2015,08,09,02,53,17.20
2015,08,09,02,54,17.20
2015,08,09,02,55,17.30
2015,08,09,02,56,17.30
2015,08,09,02,57,17.20
2015,08,09,02,58,17.30
2015,08,09,02,59,17.30
2015,08,09,03,00,17.30
2015,08,09,03,01,17.30
2015,08,09,03,02,17.30
2015,08,09,03,03,17.30
2015,08,09,03,04,17.30
2015,08,09,03,05,17.20
2015,08,09,03,06,17.20
2015,08,09,03,07,17.30
2015,08,09,03,08,17.30
2015,08,09,03,09,17.30
2015,08,09,03,10,17.30
2015,08,09,03,11,17.30
2015,08,09,03,12,17.30
2015,08,09,03,13,17.30
2015,08,09,03,14,17.30
2015,08,09,03,15,17.30
2015,08,09,03,16,17.30
2015,08,09,03,17,17.30
2015,08,09,03,18,17.30
2015,08,09,03,19,17.30
2015,08,09,03,20,17.30
2015,08,09,03,21,17.30
2015,08,09,03,22,17.30
2015,08,09,03,23,17.30
2015,08,09,03,24,17.20
2015,08,09,03,25,17.10
2015,08,09,03,26,17.10
2015,08,09,03,27,17.00
2015,08,09,03,28,17.00
2015,08,09,03,29,16.90
2015,08,09,03,30,16.90
2015,08,09,03,31,16.90
2015,08,09,03,32,16.90
2015,08,09,03,33,16.90
2015,08,09,03,34,16.90
2015,08,09,03,35,16.90
2015,08,09,03,36,16.90
2015,08,09,03,37,16.90
2015,08,09,03,38,17.00
2015,08,09,03,39,17.00
2015,08,09,03,40,17.00
2015,08,09,03,41,17.00
2015,08,09,03,42,17.00
2015,08,09,03,43,17.00
2015,08,09,03,44,17.00
2015,08,09,03,45,17.10
2015,08,09,03,46,17.10
2015,08,09,03,47,17.20
2015,08,09,03,48,17.20
2015,08,09,03,49,17.20
2015,08,09,03,50,17.20
2015,08,09,03,51,17.30
2015,08,09,03,52,17.30
2015,08,09,03,53,17.30
2015,08,09,03,54,17.30
2015,08,09,03,55,17.30
2015,08,09,03,56,17.40
2015,08,09,03,57,17.40
2015,08,09,03,58,17.40
2015,08,09,03,59,17.40
2015,08,09,04,00,17.40
2015,08,09,04,01,17.40
2015,08,09,04,02,17.40
2015,08,09,04,03,17.40
2015,08,09,04,04,17.40
2015,08,09,04,05,17.40
2015,08,09,04,06,17.40
2015,08,09,04,07,17.50
2015,08,09,04,08,17.50
2015,08,09,04,09,17.50
2015,08,09,04,10,17.50
2015,08,09,04,11,17.50
2015,08,09,04,12,17.50
2015,08,09,04,13,17.50
2015,08,09,04,14,17.50
2015,08,09,04,15,17.50
2015,08,09,04,16,17.50
2015,08,09,04,17,17.50
2015,08,09,04,18,17.50
2015,08,09,04,19,17.50
2015,08,09,04,20,17.50
2015,08,09,04,21,17.50
2015,08,09,04,22,17.50
2015,08,09,04,23,17.50
2015,08,09,04,24,17.50
2015,08,09,04,25,17.50
2015,08,09,04,26,17.50
2015,08,09,04,27,17.50
2015,08,09,04,28,17.50
2015,08,09,04,29,17.50
2015,08,09,04,30,17.50
2015,08,09,04,31,17.50
2015,08,09,04,32,17.50
2015,08,09,04,33,17.40
2015,08,09,04,34,17.40
2015,08,09,04,35,17.40
2015,08,09,04,36,17.40
2015,08,09,04,37,17.50
2015,08,09,04,38,17.50
2015,08,09,04,39,17.50
2015,08,09,04,40,17.50
2015,08,09,04,41,17.50
2015,08,09,04,42,17.50
2015,08,09,04,43,17.50
2015,08,09,04,44,17.40
2015,08,09,04,45,17.40
2015,08,09,04,46,17.40
2015,08,09,04,47,17.40
2015,08,09,04,48,17.40
2015,08,09,04,49,17.40
2015,08,09,04,50,17.40
2015,08,09,04,51,17.40
2015,08,09,04,52,17.40
2015,08,09,04,53,17.40
2015,08,09,04,54,17.40
2015,08,09,04,55,17.40
2015,08,09,04,56,17.40
2015,08,09,04,57,17.30
2015,08,09,04,58,17.30
2015,08,09,04,59,17.30
2015,08,09,05,00,17.30
2015,08,09,05,01,17.30
2015,08,09,05,02,17.30
2015,08,09,05,03,17.30
2015,08,09,05,04,17.30
2015,08,09,05,05,17.30
2015,08,09,05,06,17.30
2015,08,09,05,07,17.30
2015,08,09,05,08,17.30
2015,08,09,05,09,17.30
2015,08,09,05,10,17.30
2015,08,09,05,11,17.30
2015,08,09,05,12,17.30
2015,08,09,05,13,17.30
2015,08,09,05,14,17.30
2015,08,09,05,15,17.30
2015,08,09,05,16,17.30
2015,08,09,05,17,17.30
2015,08,09,05,18,17.30
2015,08,09,05,19,17.30
2015,08,09,05,20,17.40
2015,08,09,05,21,17.40
2015,08,09,05,22,17.40
2015,08,09,05,23,17.40
2015,08,09,05,24,17.40
2015,08,09,05,25,17.40
2015,08,09,05,26,17.40
2015,08,09,05,27,17.40
2015,08,09,05,28,17.40
2015,08,09,05,29,17.40
2015,08,09,05,30,17.40
2015,08,09,05,31,17.30
2015,08,09,05,32,17.30
2015,08,09,05,33,17.30
2015,08,09,05,34,17.30
2015,08,09,05,35,17.30
2015,08,09,05,36,17.30
2015,08,09,05,37,17.30
2015,08,09,05,38,17.30
2015,08,09,05,39,17.30
2015,08,09,05,40,17.30
2015,08,09,05,41,17.40
2015,08,09,05,42,17.40
2015,08,09,05,43,17.40
2015,08,09,05,44,17.40
2015,08,09,05,45,17.40
2015,08,09,05,46,17.30
2015,08,09,05,47,17.30
2015,08,09,05,48,17.30
2015,08,09,05,49,17.30
2015,08,09,05,50,17.30
2015,08,09,05,51,17.30
2015,08,09,05,52,17.30
2015,08,09,05,53,17.30
2015,08,09,05,54,17.30
2015,08,09,05,55,17.30
2015,08,09,05,56,17.30
2015,08,09,05,57,17.30
2015,08,09,05,58,17.20
2015,08,09,05,59,17.10
2015,08,09,06,00,17.00
2015,08,09,06,01,16.80
2015,08,09,06,02,16.70
2015,08,09,06,03,16.60
2015,08,09,06,04,16.50
2015,08,09,06,05,16.40
2015,08,09,06,06,16.30
2015,08,09,06,07,16.20
2015,08,09,06,08,16.20
2015,08,09,06,09,16.10
2015,08,09,06,10,16.10
2015,08,09,06,11,16.10
2015,08,09,06,12,15.90
2015,08,09,06,13,15.90
2015,08,09,06,14,15.80
2015,08,09,06,15,15.80
2015,08,09,06,16,15.80
2015,08,09,06,17,15.80
2015,08,09,06,18,15.70
2015,08,09,06,19,15.70
2015,08,09,06,20,15.70
2015,08,09,06,21,15.60
2015,08,09,06,22,15.60
2015,08,09,06,23,15.60
2015,08,09,06,24,15.60
2015,08,09,06,25,15.50
2015,08,09,06,26,15.40
2015,08,09,06,27,15.30
2015,08,09,06,28,15.20
2015,08,09,06,29,15.10
2015,08,09,06,30,15.00
2015,08,09,06,31,14.90
2015,08,09,06,32,14.80
2015,08,09,06,33,14.80
2015,08,09,06,34,14.70
2015,08,09,06,35,14.70
2015,08,09,06,36,14.60
2015,08,09,06,37,14.50
2015,08,09,06,38,14.50
2015,08,09,06,39,14.40
2015,08,09,06,40,14.30
2015,08,09,06,41,14.20
2015,08,09,06,42,14.20
2015,08,09,06,43,14.10
2015,08,09,06,44,14.00
2015,08,09,06,45,14.00
2015,08,09,06,46,13.90
2015,08,09,06,47,13.80
2015,08,09,06,48,13.80
2015,08,09,06,49,13.70
2015,08,09,06,50,13.70
2015,08,09,06,51,13.70
2015,08,09,06,52,13.70
2015,08,09,06,53,13.70
2015,08,09,06,54,13.60
2015,08,09,06,55,13.60
2015,08,09,06,56,13.50
2015,08,09,06,57,13.50
2015,08,09,06,58,13.50
2015,08,09,06,59,13.50
2015,08,09,07,00,13.50
2015,08,09,07,01,13.50
2015,08,09,07,02,13.40
2015,08,09,07,03,13.40
2015,08,09,07,04,13.40
2015,08,09,07,05,13.40
2015,08,09,07,06,13.40
2015,08,09,07,07,13.40
2015,08,09,07,08,13.40
2015,08,09,07,09,13.40
2015,08,09,07,10,13.40
2015,08,09,07,11,13.40
2015,08,09,07,12,13.40
2015,08,09,07,13,13.40
2015,08,09,07,14,13.40
2015,08,09,07,15,13.40
2015,08,09,07,16,13.40
2015,08,09,07,17,13.40
2015,08,09,07,18,13.40
2015,08,09,07,19,13.40
2015,08,09,07,20,13.40
2015,08,09,07,21,13.40
2015,08,09,07,22,13.40
2015,08,09,07,23,13.40
2015,08,09,07,24,13.40
2015,08,09,07,25,13.50
2015,08,09,07,26,13.50
2015,08,09,07,27,13.50
2015,08,09,07,28,13.50
2015,08,09,07,29,13.50
2015,08,09,07,30,13.50
2015,08,09,07,31,13.50
2015,08,09,07,32,13.50
2015,08,09,07,33,13.50
2015,08,09,07,34,13.50
2015,08,09,07,35,13.50
2015,08,09,07,36,13.50
2015,08,09,07,37,13.60
2015,08,09,07,38,13.60
2015,08,09,07,39,13.60
2015,08,09,07,40,13.60
2015,08,09,07,41,13.60
2015,08,09,07,42,13.60
2015,08,09,07,43,13.60
2015,08,09,07,44,13.60
2015,08,09,07,45,13.60
2015,08,09,07,46,13.60
2015,08,09,07,47,13.70
2015,08,09,07,48,13.70
2015,08,09,07,49,13.70
2015,08,09,07,50,13.70
2015,08,09,07,51,13.70
2015,08,09,07,52,13.70
2015,08,09,07,53,13.70
2015,08,09,07,54,13.70
2015,08,09,07,55,13.80
2015,08,09,07,56,13.80
2015,08,09,07,57,13.80
2015,08,09,07,58,13.90
2015,08,09,07,59,13.90
2015,08,09,08,00,13.90
2015,08,09,08,01,13.90
2015,08,09,08,02,13.90
2015,08,09,08,03,14.00
2015,08,09,08,04,14.00
2015,08,09,08,05,14.00
2015,08,09,08,06,14.00
2015,08,09,08,07,14.00
2015,08,09,08,08,14.00
2015,08,09,08,09,14.10
2015,08,09,08,10,14.10
2015,08,09,08,11,14.20
2015,08,09,08,12,14.20
2015,08,09,08,13,14.20
2015,08,09,08,14,14.20
2015,08,09,08,15,14.20
2015,08,09,08,16,14.20
2015,08,09,08,17,14.20
2015,08,09,08,18,14.20
2015,08,09,08,19,14.20
2015,08,09,08,20,14.30
2015,08,09,08,21,14.30
2015,08,09,08,22,14.30
2015,08,09,08,23,14.30
2015,08,09,08,24,14.20
2015,08,09,08,25,14.20
2015,08,09,08,26,14.20
2015,08,09,08,27,14.20
2015,08,09,08,28,14.20
2015,08,09,08,29,14.20
2015,08,09,08,30,14.20
2015,08,09,08,31,14.20
2015,08,09,08,32,14.20
2015,08,09,08,33,14.20
2015,08,09,08,34,14.20
2015,08,09,08,35,14.20
2015,08,09,08,36,14.20
2015,08,09,08,37,14.20
2015,08,09,08,38,14.20
2015,08,09,08,39,14.20
2015,08,09,08,40,14.30
2015,08,09,08,41,14.30
2015,08,09,08,42,14.30
2015,08,09,08,43,14.30
2015,08,09,08,44,14.30
2015,08,09,08,45,14.30
2015,08,09,08,46,14.30
2015,08,09,08,47,14.30
2015,08,09,08,48,14.30
2015,08,09,08,49,14.30
2015,08,09,08,50,14.40
2015,08,09,08,51,14.40
2015,08,09,08,52,14.40
2015,08,09,08,53,14.40
2015,08,09,08,54,14.40
2015,08,09,08,55,14.40
2015,08,09,08,56,14.40
2015,08,09,08,57,14.40
2015,08,09,08,58,14.50
2015,08,09,08,59,14.50
2015,08,09,09,00,14.50
2015,08,09,09,01,14.50
2015,08,09,09,02,14.50
2015,08,09,09,03,14.60
2015,08,09,09,04,14.60
2015,08,09,09,05,14.60
2015,08,09,09,06,14.60
2015,08,09,09,07,14.70
2015,08,09,09,08,14.70
2015,08,09,09,09,14.80
2015,08,09,09,10,14.80
2015,08,09,09,11,14.90
2015,08,09,09,12,15.00
2015,08,09,09,13,15.00
2015,08,09,09,14,15.10
2015,08,09,09,15,15.10
2015,08,09,09,16,15.10
2015,08,09,09,17,15.10
2015,08,09,09,18,15.20
2015,08,09,09,19,15.20
2015,08,09,09,20,15.20
2015,08,09,09,21,15.20
2015,08,09,09,22,15.20
2015,08,09,09,23,15.20
2015,08,09,09,24,15.20
2015,08,09,09,25,15.20
2015,08,09,09,26,15.20
2015,08,09,09,27,15.20
2015,08,09,09,28,15.30
2015,08,09,09,29,15.30
2015,08,09,09,30,15.40
2015,08,09,09,31,15.40
2015,08,09,09,32,15.50
2015,08,09,09,33,15.60
2015,08,09,09,34,15.60
2015,08,09,09,35,15.70
2015,08,09,09,36,15.70
2015,08,09,09,37,15.70
2015,08,09,09,38,15.70
2015,08,09,09,39,15.70
2015,08,09,09,40,15.70
2015,08,09,09,41,15.70
2015,08,09,09,42,15.70
2015,08,09,09,43,15.80
2015,08,09,09,44,15.80
2015,08,09,09,45,15.80
2015,08,09,09,46,15.80
2015,08,09,09,47,15.80
2015,08,09,09,48,15.80
2015,08,09,09,49,15.80
2015,08,09,09,50,15.80
2015,08,09,09,51,15.80
2015,08,09,09,52,15.80
2015,08,09,09,53,15.90
2015,08,09,09,54,15.90
2015,08,09,09,55,15.90
2015,08,09,09,56,15.90
2015,08,09,09,57,16.10
2015,08,09,09,58,16.10
2015,08,09,09,59,16.10
2015,08,09,10,00,16.10
2015,08,09,10,01,16.20
2015,08,09,10,02,16.20
2015,08,09,10,03,16.30
2015,08,09,10,04,16.30
2015,08,09,10,05,16.30
2015,08,09,10,06,16.30
2015,08,09,10,07,16.40
2015,08,09,10,08,16.40
2015,08,09,10,09,16.40
2015,08,09,10,10,16.50
2015,08,09,10,11,16.60
2015,08,09,10,12,16.60
2015,08,09,10,13,16.60
2015,08,09,10,14,16.70
2015,08,09,10,15,16.70
2015,08,09,10,16,16.70
2015,08,09,10,17,16.70
2015,08,09,10,18,16.70
2015,08,09,10,19,16.70
2015,08,09,10,20,16.70
2015,08,09,10,21,16.70
2015,08,09,10,22,16.70
2015,08,09,10,23,16.80
2015,08,09,10,24,16.80
2015,08,09,10,25,16.90
2015,08,09,10,26,16.90
2015,08,09,10,27,17.00
2015,08,09,10,28,17.00
2015,08,09,10,29,17.10
2015,08,09,10,30,17.10
2015,08,09,10,31,17.20
2015,08,09,10,32,17.30
2015,08,09,10,33,17.40
2015,08,09,10,34,17.50
2015,08,09,10,35,17.60
2015,08,09,10,36,17.60
2015,08,09,10,37,17.60
2015,08,09,10,38,17.70
2015,08,09,10,39,17.70
2015,08,09,10,40,17.70
2015,08,09,10,41,17.70
2015,08,09,10,42,17.60
2015,08,09,10,43,17.60
2015,08,09,10,44,17.70
2015,08,09,10,45,17.70
2015,08,09,10,46,17.70
2015,08,09,10,47,17.80
2015,08,09,10,48,17.80
2015,08,09,10,49,18.00
2015,08,09,10,50,18.10
2015,08,09,10,51,18.30
2015,08,09,10,52,18.40
2015,08,09,10,53,18.30
2015,08,09,10,54,18.30
2015,08,09,10,55,18.30
2015,08,09,10,56,18.40
2015,08,09,10,57,18.40
2015,08,09,10,58,18.50
2015,08,09,10,59,18.60
2015,08,09,11,00,18.70
2015,08,09,11,01,18.80
2015,08,09,11,02,18.90
2015,08,09,11,03,18.80
2015,08,09,11,04,18.70
2015,08,09,11,05,18.60
2015,08,09,11,06,18.50
2015,08,09,11,07,18.40
2015,08,09,11,08,18.30
2015,08,09,11,09,18.30
2015,08,09,11,10,18.30
2015,08,09,11,11,18.40
2015,08,09,11,12,18.50
2015,08,09,11,13,18.60
2015,08,09,11,14,18.70
2015,08,09,11,15,18.80
2015,08,09,11,16,18.80
2015,08,09,11,17,18.80
2015,08,09,11,18,18.90
2015,08,09,11,19,18.90
2015,08,09,11,20,18.90
2015,08,09,11,21,18.90
2015,08,09,11,22,18.90
2015,08,09,11,23,18.90
2015,08,09,11,24,18.90
2015,08,09,11,25,18.90
2015,08,09,11,26,18.90
2015,08,09,11,27,18.90
2015,08,09,11,28,18.90
2015,08,09,11,29,18.90
2015,08,09,11,30,18.90
2015,08,09,11,31,18.90
2015,08,09,11,32,18.70
2015,08,09,11,33,18.70
2015,08,09,11,34,18.70
2015,08,09,11,35,18.60
2015,08,09,11,36,18.60
2015,08,09,11,37,18.60
2015,08,09,11,38,18.70
2015,08,09,11,39,18.90
2015,08,09,11,40,18.90
2015,08,09,11,41,18.90
2015,08,09,11,42,18.90
2015,08,09,11,43,18.70
2015,08,09,11,44,18.60
2015,08,09,11,45,18.60
2015,08,09,11,46,18.50
2015,08,09,11,47,18.50
2015,08,09,11,48,18.60
2015,08,09,11,49,18.60
2015,08,09,11,50,18.70
2015,08,09,11,51,18.90
2015,08,09,11,52,18.90
2015,08,09,11,53,18.90
2015,08,09,11,54,19.00
2015,08,09,11,55,19.10
2015,08,09,11,56,19.10
2015,08,09,11,57,19.20
2015,08,09,11,58,19.20
2015,08,09,11,59,19.20
2015,08,09,12,00,19.20
2015,08,09,12,01,19.10
2015,08,09,12,02,19.20
2015,08,09,12,03,19.20
2015,08,09,12,04,19.10
2015,08,09,12,05,19.00
2015,08,09,12,06,18.90
2015,08,09,12,07,18.90
2015,08,09,12,08,19.00
2015,08,09,12,09,19.10
2015,08,09,12,10,19.30
2015,08,09,12,11,19.30
2015,08,09,12,12,19.10
2015,08,09,12,13,19.00
2015,08,09,12,14,18.70
2015,08,09,12,15,18.70
2015,08,09,12,16,18.70
2015,08,09,12,17,18.70
2015,08,09,12,18,18.80
2015,08,09,12,19,18.80
2015,08,09,12,20,18.70
2015,08,09,12,21,18.60
2015,08,09,12,22,18.50
2015,08,09,12,23,18.40
2015,08,09,12,24,18.20
2015,08,09,12,25,18.20
2015,08,09,12,26,18.20
2015,08,09,12,27,18.20
2015,08,09,12,28,18.20
2015,08,09,12,29,18.20
2015,08,09,12,30,18.30
2015,08,09,12,31,18.40
2015,08,09,12,32,18.50
2015,08,09,12,33,18.50
2015,08,09,12,34,18.60
2015,08,09,12,35,18.60
2015,08,09,12,36,18.60
2015,08,09,12,37,18.50
2015,08,09,12,38,18.40
2015,08,09,12,39,18.40
2015,08,09,12,40,18.30
2015,08,09,12,41,18.30
2015,08,09,12,42,18.20
2015,08,09,12,43,18.20
2015,08,09,12,44,18.20
2015,08,09,12,45,18.20
2015,08,09,12,46,18.20
2015,08,09,12,47,18.20
2015,08,09,12,48,18.20
2015,08,09,12,49,18.20
2015,08,09,12,50,18.10
2015,08,09,12,51,18.00
2015,08,09,12,52,17.90
2015,08,09,12,53,17.90
2015,08,09,12,54,17.90
2015,08,09,12,55,17.90
2015,08,09,12,56,17.90
2015,08,09,12,57,17.90
2015,08,09,12,58,18.00
2015,08,09,12,59,18.10
2015,08,09,13,00,18.20
2015,08,09,13,01,18.30
2015,08,09,13,02,18.30
2015,08,09,13,03,18.30
2015,08,09,13,04,18.40
2015,08,09,13,05,18.40
2015,08,09,13,06,18.40
2015,08,09,13,07,18.50
2015,08,09,13,08,18.50
2015,08,09,13,09,18.50
2015,08,09,13,10,18.50
2015,08,09,13,11,18.50
2015,08,09,13,12,18.40
2015,08,09,13,13,18.30
2015,08,09,13,14,18.40
2015,08,09,13,15,18.40
2015,08,09,13,16,18.50
2015,08,09,13,17,18.50
2015,08,09,13,18,18.50
2015,08,09,13,19,18.50
2015,08,09,13,20,18.60
2015,08,09,13,21,18.70
2015,08,09,13,22,18.80
2015,08,09,13,23,18.80
2015,08,09,13,24,18.70
2015,08,09,13,25,18.70
2015,08,09,13,26,18.70
2015,08,09,13,27,18.70
2015,08,09,13,28,18.70
2015,08,09,13,29,18.70
2015,08,09,13,30,18.70
2015,08,09,13,31,18.60
2015,08,09,13,32,18.60
2015,08,09,13,33,18.50
2015,08,09,13,34,18.50
2015,08,09,13,35,18.50
2015,08,09,13,36,18.60
2015,08,09,13,37,18.70
2015,08,09,13,38,18.80
2015,08,09,13,39,18.90
2015,08,09,13,40,18.90
2015,08,09,13,41,18.90
2015,08,09,13,42,19.00
2015,08,09,13,43,19.10
2015,08,09,13,44,19.10
2015,08,09,13,45,19.10
2015,08,09,13,46,19.10
2015,08,09,13,47,19.20
2015,08,09,13,48,19.40
2015,08,09,13,49,19.40
2015,08,09,13,50,19.50
2015,08,09,13,51,19.50
2015,08,09,13,52,19.50
2015,08,09,13,53,19.50
2015,08,09,13,54,19.50
2015,08,09,13,55,19.40
2015,08,09,13,56,19.30
2015,08,09,13,57,19.30
2015,08,09,13,58,19.30
2015,08,09,13,59,19.40
2015,08,09,14,00,19.50
2015,08,09,14,01,19.50
2015,08,09,14,02,19.60
2015,08,09,14,03,19.60
2015,08,09,14,04,19.50
2015,08,09,14,05,19.40
2015,08,09,14,06,19.30
2015,08,09,14,07,19.20
2015,08,09,14,08,19.20
2015,08,09,14,09,19.20
2015,08,09,14,10,19.20
2015,08,09,14,11,19.20
2015,08,09,14,12,19.20
2015,08,09,14,13,19.30
2015,08,09,14,14,19.30
2015,08,09,14,15,19.30
2015,08,09,14,16,19.40
2015,08,09,14,17,19.50
2015,08,09,14,18,19.50
2015,08,09,14,19,19.60
2015,08,09,14,20,19.70
2015,08,09,14,21,19.80
2015,08,09,14,22,19.80
2015,08,09,14,23,19.90
2015,08,09,14,24,19.90
2015,08,09,14,25,19.80
2015,08,09,14,26,19.70
2015,08,09,14,27,19.60
2015,08,09,14,28,19.60
2015,08,09,14,29,19.60
2015,08,09,14,30,19.60
2015,08,09,14,31,19.50
2015,08,09,14,32,19.40
2015,08,09,14,33,19.40
2015,08,09,14,34,19.40
2015,08,09,14,35,19.30
2015,08,09,14,36,19.20
2015,08,09,14,37,19.20
2015,08,09,14,38,19.20
2015,08,09,14,39,19.10
2015,08,09,14,40,19.10
2015,08,09,14,41,19.10
2015,08,09,14,42,19.10
2015,08,09,14,43,19.20
2015,08,09,14,44,19.20
2015,08,09,14,45,19.30
2015,08,09,14,46,19.40
2015,08,09,14,47,19.50
2015,08,09,14,48,19.50
2015,08,09,14,49,19.60
2015,08,09,14,50,19.70
2015,08,09,14,51,19.70
2015,08,09,14,52,19.60
2015,08,09,14,53,19.60
2015,08,09,14,54,19.50
2015,08,09,14,55,19.40
2015,08,09,14,56,19.30
2015,08,09,14,57,19.30
2015,08,09,14,58,19.20
2015,08,09,14,59,19.10
2015,08,09,15,00,19.10
2015,08,09,15,01,19.10
2015,08,09,15,02,19.10
2015,08,09,15,03,19.10
2015,08,09,15,04,19.10
2015,08,09,15,05,19.20
2015,08,09,15,06,19.30
2015,08,09,15,07,19.30
2015,08,09,15,08,19.30
2015,08,09,15,09,19.30
2015,08,09,15,10,19.20
2015,08,09,15,11,19.20
2015,08,09,15,12,19.20
2015,08,09,15,13,19.20
2015,08,09,15,14,19.10
2015,08,09,15,15,19.10
2015,08,09,15,16,19.20
2015,08,09,15,17,19.20
2015,08,09,15,18,19.20
2015,08,09,15,19,19.20
2015,08,09,15,20,19.20
2015,08,09,15,21,19.10
2015,08,09,15,22,19.10
2015,08,09,15,23,19.10
2015,08,09,15,24,19.00
2015,08,09,15,25,18.90
2015,08,09,15,26,18.90
2015,08,09,15,27,19.00
2015,08,09,15,28,19.00
2015,08,09,15,29,18.90
2015,08,09,15,30,18.90
2015,08,09,15,31,19.10
2015,08,09,15,32,19.10
2015,08,09,15,33,19.10
2015,08,09,15,34,19.10
2015,08,09,15,35,19.10
2015,08,09,15,36,19.10
2015,08,09,15,37,18.90
2015,08,09,15,38,19.00
2015,08,09,15,39,19.10
2015,08,09,15,40,19.10
2015,08,09,15,41,19.10
2015,08,09,15,42,19.10
2015,08,09,15,43,19.10
2015,08,09,15,44,18.90
2015,08,09,15,45,18.90
2015,08,09,15,46,19.00
2015,08,09,15,47,19.10
2015,08,09,15,48,19.10
2015,08,09,15,49,19.20
2015,08,09,15,50,19.20
2015,08,09,15,51,19.10
2015,08,09,15,52,19.20
2015,08,09,15,53,19.30
2015,08,09,15,54,19.40
2015,08,09,15,55,19.40
2015,08,09,15,56,19.40
2015,08,09,15,57,19.40
2015,08,09,15,58,19.40
2015,08,09,15,59,19.40
2015,08,09,16,00,19.30
2015,08,09,16,01,19.30
2015,08,09,16,02,19.30
2015,08,09,16,03,19.30
2015,08,09,16,04,19.30
2015,08,09,16,05,19.40
2015,08,09,16,06,19.40
2015,08,09,16,07,19.50
2015,08,09,16,08,19.50
2015,08,09,16,09,19.50
2015,08,09,16,10,19.60
2015,08,09,16,11,19.70
2015,08,09,16,12,19.70
2015,08,09,16,13,19.80
2015,08,09,16,14,19.90
2015,08,09,16,15,19.80
2015,08,09,16,16,19.80
2015,08,09,16,17,19.80
2015,08,09,16,18,19.80
2015,08,09,16,19,19.70
2015,08,09,16,20,19.70
2015,08,09,16,21,19.60
2015,08,09,16,22,19.60
2015,08,09,16,23,19.60
2015,08,09,16,24,19.70
2015,08,09,16,25,19.70
2015,08,09,16,26,19.70
2015,08,09,16,27,19.70
2015,08,09,16,28,19.70
2015,08,09,16,29,19.60
2015,08,09,16,30,19.50
2015,08,09,16,31,19.60
2015,08,09,16,32,19.70
2015,08,09,16,33,19.80
2015,08,09,16,34,19.90
2015,08,09,16,35,20.00
2015,08,09,16,36,20.10
2015,08,09,16,37,20.20
2015,08,09,16,38,20.20
2015,08,09,16,39,20.30
2015,08,09,16,40,20.30
2015,08,09,16,41,20.40
2015,08,09,16,42,20.40
2015,08,09,16,43,20.40
2015,08,09,16,44,20.30
2015,08,09,16,45,20.30
2015,08,09,16,46,20.30
2015,08,09,16,47,20.20
2015,08,09,16,48,20.20
2015,08,09,16,49,20.20
2015,08,09,16,50,20.20
2015,08,09,16,51,20.20
2015,08,09,16,52,20.20
2015,08,09,16,53,20.30
2015,08,09,16,54,20.30
2015,08,09,16,55,20.40
2015,08,09,16,56,20.50
2015,08,09,16,57,20.50
2015,08,09,16,58,20.60
2015,08,09,16,59,20.60
2015,08,09,17,00,20.60
2015,08,09,17,01,20.60
2015,08,09,17,02,20.60
2015,08,09,17,03,20.60
2015,08,09,17,04,20.60
2015,08,09,17,05,20.60
2015,08,09,17,06,20.60
2015,08,09,17,07,20.60
2015,08,09,17,08,20.60
2015,08,09,17,09,20.60
2015,08,09,17,10,20.60
2015,08,09,17,11,20.50
2015,08,09,17,12,20.50
2015,08,09,17,13,20.50
2015,08,09,17,14,20.50
2015,08,09,17,15,20.60
2015,08,09,17,16,20.70
2015,08,09,17,17,20.90
2015,08,09,17,18,21.00
2015,08,09,17,19,21.10